This is the latest recevied weather packets stored in our database for station/object N5SNT-2. If no packets are shown the sender has not sent any weather packets the latest 10 day(s).
| Time | Temp. | Humidity | Pressure | Rain* | Wind** | Luminosity | Snow |
|---|---|---|---|---|---|---|---|
| 1777816044 | 15.56° C | 81% | 1025 hPa | 0 mm | - | 163 W/m² | - |
| 1777815744 | 15.56° C | 83% | 1025 hPa | 0 mm | - | 130 W/m² | - |
| 1777815443 | 15° C | 82% | 1025 hPa | 0 mm | - | 146 W/m² | - |
| 1777815143 | 15° C | 83% | 1025 hPa | 0 mm | - | 103 W/m² | - |
| 1777814844 | 14.44° C | 83% | 1025 hPa | 0 mm | - | 59 W/m² | - |
| 1777814543 | 13.89° C | 84% | 1025 hPa | 0 mm | - | 100 W/m² | - |
| 1777814244 | 13.89° C | 84% | 1025 hPa | 0 mm | - | 88 W/m² | - |
| 1777813943 | 13.33° C | 86% | 1025 hPa | 0 mm | - | 77 W/m² | - |
| 1777813644 | 13.33° C | 87% | 1025 hPa | 0 mm | - | 69 W/m² | - |
| 1777813344 | 12.78° C | 88% | 1025 hPa | 0 mm | - | 61 W/m² | - |
| 1777813043 | 12.22° C | 88% | 1025 hPa | 0 mm | - | 56 W/m² | - |
| 1777812743 | 11.67° C | 89% | 1025 hPa | 0 mm | - | 51 W/m² | - |
| 1777812443 | 11.67° C | 89% | 1025 hPa | 0 mm | - | 39 W/m² | - |
| 1777812144 | 11.67° C | 90% | 1025 hPa | 0 mm | - | 33 W/m² | - |
| 1777811843 | 11.67° C | 90% | 1025 hPa | 0 mm | - | 31 W/m² | - |
| 1777811543 | 11.11° C | 91% | 1025 hPa | 0 mm | - | 29 W/m² | - |
| 1777811243 | 11.11° C | 91% | 1025 hPa | 0 mm | - | 26 W/m² | - |
| 1777810944 | 11.11° C | 91% | 1025 hPa | 0 mm | - | 23 W/m² | - |
| 1777810643 | 11.11° C | 92% | 1025 hPa | 0 mm | - | 20 W/m² | - |
| 1777810344 | 11.11° C | 93% | 1024 hPa | 0 mm | - | 17 W/m² | - |
| 1777810043 | 10.56° C | 93% | 1024 hPa | 0 mm | - | 13 W/m² | - |
| 1777809744 | 10.56° C | 93% | 1024 hPa | 0 mm | - | 10 W/m² | - |
| 1777809443 | 11.11° C | 93% | 1025 hPa | 0 mm | - | 7 W/m² | - |
| 1777809143 | 11.11° C | 93% | 1024 hPa | 0 mm | - | 4 W/m² | - |
| 1777808843 | 11.11° C | 93% | 1025 hPa | 0 mm | - | 2 W/m² | - |
* Rain latest hour (hover to see other rain measurements)
** Current wind speed in m/s (hover to see current wind gust speed)